Rogers City, MI

1:22 AM EDT on May 28, 2018 (GMT -0400)
Presque Isle County

Weather History for KPZQ - December, 2012

Change the Weather History Date:

Saturday, December 29, 2012

  Actual Average (KAPN) Record (KAPN)
Temperature  
Mean Temperature 23 °F -  
Max Temperature 25 °F 28 °F 57 °F (1984)
Min Temperature 21 °F 14 °F -27 °F (1933)
Degree Days  
Heating Degree Days 42    
Moisture  
Dew Point 20 °F    
Average Humidity 84    
Maximum Humidity 90    
Minimum Humidity 75    
Precipitation  
Precipitation 0.00 in - - ()
Sea Level Pressure  
Sea Level Pressure 29.93 in    
Wind  
Wind Speed 4 mph (WNW)    
Max Wind Speed 10 mph    
Max Gust Speed 17 mph    
Visibility 10 miles    
Events Snow    
Averages and records for this station are not official NWS values.
T = Trace of Precipitation, MM = Missing Value Source: NWS Daily Summary

Daily Weather History Graph

Daily Weather History Graph

Search for Another Location

Airport or City:

Astronomy

Dec. 29, 2012 Rise Set
Actual Time 8:14 AM EST 5:00 PM EST
Civil Twilight 7:40 AM EST 5:34 PM EST
Nautical Twilight 7:03 AM EST 6:12 PM EST
Astronomical Twilight 6:27 AM EST 6:48 PM EST
Moon 6:37 PM EST (12/29) 8:43 AM EST (12/29)
Length of Visible Light 9h 53m
Length of Day
8h 45m
Full, 98% of the Moon is Illuminated
Dec 29
Full
Jan 4
Last Quarter
Jan 11
New
Jan 18
First Quarter
Jan 26
Full

Hourly Weather History & Observations

Time (EST) Temp. Windchill Dew Point Humidity Pressure Visibility Wind Dir Wind Speed Gust Speed Precip Events Conditions
12:15 AM 23.9 °F 19.5 °F 19.8 °F 84% 29.99 in 10.0 mi West 3.5 mph - N/A   Overcast
12:35 AM 24.1 °F - 20.1 °F 85% 29.97 in 2.5 mi Calm Calm - N/A Snow Light Snow
12:55 AM 24.4 °F 20.1 °F 21.0 °F 87% 29.97 in 7.0 mi WNW 3.5 mph - N/A   Overcast
1:15 AM 24.4 °F - 21.2 °F 87% 29.95 in 10.0 mi Calm Calm - N/A   Overcast
1:36 AM 23.9 °F - 20.7 °F 87% 29.94 in 10.0 mi Calm Calm - N/A   Overcast
1:55 AM 23.9 °F - 20.7 °F 87% 29.94 in 10.0 mi Calm Calm - N/A   Overcast
2:15 AM 23.9 °F 19.5 °F 20.7 °F 87% 29.94 in 10.0 mi WSW 3.5 mph - N/A   Overcast
2:35 AM 24.4 °F - 21.0 °F 87% 29.94 in 10.0 mi Calm Calm - N/A   Overcast
2:55 AM 23.9 °F 19.5 °F 20.8 °F 88% 29.94 in 10.0 mi WSW 3.5 mph - N/A   Overcast
3:16 AM 24.3 °F - 21.0 °F 87% 29.94 in 10.0 mi Calm Calm - N/A   Overcast
3:35 AM 24.4 °F 20.1 °F 21.2 °F 87% 29.94 in 7.0 mi SW 3.5 mph - N/A Snow Light Snow
3:55 AM 25.9 °F - 22.1 °F 86% 29.94 in 10.0 mi Calm Calm - N/A   Overcast
4:15 AM 24.3 °F 19.9 °F 21.2 °F 88% 29.93 in 7.0 mi WSW 3.5 mph - N/A   Overcast
4:35 AM 24.6 °F - 21.2 °F 87% 29.93 in 7.0 mi Calm Calm - N/A Snow Light Snow
4:55 AM 25.2 °F - 21.6 °F 86% 29.92 in 10.0 mi Calm Calm - N/A   Overcast
5:15 AM 23.9 °F - 21.0 °F 89% 29.92 in 10.0 mi Calm Calm - N/A   Overcast
5:36 AM 24.3 °F - 21.6 °F 89% 29.92 in 10.0 mi Calm Calm - N/A   Overcast
5:55 AM 25.2 °F 18.3 °F 22.6 °F 90% 29.92 in 10.0 mi ENE 5.8 mph - N/A   Overcast
6:15 AM 25.9 °F 18.2 °F 22.8 °F 88% 29.92 in 10.0 mi NE 6.9 mph - N/A   Overcast
6:35 AM 25.7 °F 18.0 °F 22.8 °F 89% 29.92 in 10.0 mi ENE 6.9 mph - N/A   Overcast
7:16 AM 25.7 °F 18.0 °F 22.1 °F 86% 29.92 in 10.0 mi NE 6.9 mph - N/A   Overcast
7:35 AM 25.7 °F 17.1 °F 22.1 °F 86% 29.92 in 10.0 mi ENE 8.1 mph - N/A   Overcast
7:55 AM 25.7 °F 18.0 °F 22.1 °F 86% 29.91 in 10.0 mi NE 6.9 mph - N/A   Overcast
8:15 AM 25.7 °F 16.4 °F 22.1 °F 86% 29.91 in 10.0 mi NE 9.2 mph - N/A   Overcast
8:36 AM 25.7 °F 20.1 °F 21.9 °F 86% 29.91 in 10.0 mi NNE 4.6 mph - N/A   Overcast
8:55 AM 25.7 °F 17.1 °F 22.1 °F 86% 29.91 in 10.0 mi NNE 8.1 mph - N/A   Overcast
9:15 AM 25.5 °F 17.8 °F 21.9 °F 86% 29.91 in 10.0 mi NNE 6.9 mph - N/A   Overcast
9:36 AM 25.3 °F 16.7 °F 21.7 °F 86% 29.91 in 7.0 mi NNE 8.1 mph - N/A   Overcast
9:55 AM 25.0 °F 18.1 °F 21.7 °F 87% 29.91 in 7.0 mi NNE 5.8 mph - N/A   Overcast
10:16 AM 24.8 °F 16.9 °F 21.2 °F 86% 29.92 in 10.0 mi NNE 6.9 mph - N/A   Overcast
10:35 AM 25.0 °F 16.3 °F 21.2 °F 86% 29.92 in 10.0 mi North 8.1 mph - N/A   Overcast
10:55 AM 25.3 °F 16.7 °F 21.2 °F 84% 29.91 in 10.0 mi North 8.1 mph - N/A   Overcast
11:15 AM 24.8 °F 17.9 °F 20.3 °F 83% 29.91 in 10.0 mi NNW 5.8 mph - N/A   Overcast
11:35 AM 24.8 °F 20.5 °F 21.0 °F 86% 29.90 in 10.0 mi North 3.5 mph - N/A   Overcast
11:56 AM 25.2 °F 19.5 °F 20.8 °F 84% 29.90 in 10.0 mi NNW 4.6 mph - N/A   Overcast
12:15 PM 25.0 °F 15.5 °F 21.0 °F 85% 29.89 in 10.0 mi North 9.2 mph - N/A   Overcast
12:35 PM 24.8 °F 17.9 °F 20.3 °F 83% 29.89 in 10.0 mi NNW 5.8 mph - N/A   Overcast
12:55 PM 24.6 °F 16.7 °F 19.9 °F 82% 29.88 in 10.0 mi NW 6.9 mph - N/A   Overcast
1:15 PM 24.6 °F 17.7 °F 19.6 °F 81% 29.88 in 10.0 mi NNW 5.8 mph - N/A   Overcast
1:36 PM 24.4 °F 14.2 °F 19.8 °F 82% 29.88 in 10.0 mi NW 10.4 mph 17.3 mph N/A   Overcast
1:55 PM 24.3 °F 13.9 °F 18.9 °F 80% 29.88 in 10.0 mi NW 10.4 mph - N/A   Overcast
2:15 PM 24.4 °F 14.2 °F 18.5 °F 78% 29.88 in 10.0 mi WNW 10.4 mph - N/A   Overcast
2:35 PM 24.3 °F 14.6 °F 19.2 °F 81% 29.88 in 10.0 mi WNW 9.2 mph - N/A   Overcast
2:55 PM 23.9 °F 15.8 °F 18.9 °F 81% 29.89 in 10.0 mi WNW 6.9 mph - N/A   Overcast
3:16 PM 23.9 °F 15.0 °F 18.5 °F 80% 29.89 in 10.0 mi NW 8.1 mph - N/A   Overcast
3:35 PM 23.9 °F 14.2 °F 18.0 °F 78% 29.90 in 10.0 mi WNW 9.2 mph - N/A   Overcast
3:55 PM 23.7 °F 15.6 °F 17.6 °F 77% 29.90 in 10.0 mi WNW 6.9 mph - N/A   Mostly Cloudy
4:15 PM 23.5 °F 15.4 °F 16.7 °F 75% 29.90 in 10.0 mi West 6.9 mph - N/A   Scattered Clouds
4:35 PM 23.5 °F 16.4 °F 16.7 °F 75% 29.91 in 10.0 mi West 5.8 mph - N/A   Clear
4:56 PM 22.6 °F 14.3 °F 16.2 °F 76% 29.92 in 10.0 mi West 6.9 mph - N/A   Scattered Clouds
5:15 PM 22.3 °F 16.1 °F 16.2 °F 77% 29.92 in 10.0 mi West 4.6 mph - N/A   Mostly Cloudy
5:35 PM 21.7 °F 14.3 °F 16.0 °F 78% 29.93 in 10.0 mi West 5.8 mph - N/A   Overcast
5:55 PM 22.1 °F 12.8 °F 16.7 °F 80% 29.93 in 10.0 mi West 8.1 mph - N/A   Overcast
6:15 PM 22.1 °F 13.7 °F 16.7 °F 80% 29.94 in 10.0 mi West 6.9 mph - N/A   Overcast
6:35 PM 22.1 °F 13.7 °F 17.1 °F 81% 29.94 in 10.0 mi West 6.9 mph - N/A   Overcast
6:55 PM 22.1 °F 13.7 °F 16.9 °F 80% 29.95 in 10.0 mi West 6.9 mph - N/A   Overcast
7:16 PM 21.7 °F 15.5 °F 16.7 °F 81% 29.95 in 10.0 mi West 4.6 mph - N/A   Overcast
7:35 PM 21.6 °F 14.0 °F 16.7 °F 82% 29.96 in 10.0 mi West 5.8 mph - N/A   Overcast
7:55 PM 21.9 °F 14.5 °F 16.7 °F 80% 29.95 in 10.0 mi West 5.8 mph - N/A   Overcast
8:15 PM 22.1 °F 13.7 °F 16.9 °F 80% 29.96 in 10.0 mi West 6.9 mph - N/A   Overcast
8:35 PM 22.5 °F 13.2 °F 17.2 °F 80% 29.96 in 10.0 mi West 8.1 mph - N/A   Overcast
8:55 PM 22.5 °F 13.2 °F 17.2 °F 80% 29.96 in 10.0 mi West 8.1 mph - N/A   Overcast
9:15 PM 22.1 °F 14.7 °F 17.6 °F 83% 29.96 in 7.0 mi West 5.8 mph - N/A   Overcast
9:36 PM 22.1 °F 12.8 °F 17.6 °F 83% 29.97 in 10.0 mi West 8.1 mph - N/A   Overcast
9:55 PM 22.1 °F 12.8 °F 18.0 °F 84% 29.97 in 10.0 mi West 8.1 mph - N/A   Overcast
10:15 PM 22.5 °F 15.1 °F 18.0 °F 83% 29.97 in 10.0 mi West 5.8 mph - N/A   Overcast
10:35 PM 23.0 °F 13.9 °F 18.3 °F 82% 29.97 in 10.0 mi West 8.1 mph - N/A   Overcast
10:55 PM 23.0 °F 15.8 °F 18.3 °F 82% 29.98 in 10.0 mi West 5.8 mph - N/A   Overcast
11:16 PM 23.0 °F 17.0 °F 18.5 °F 83% 29.99 in 10.0 mi West 4.6 mph - N/A   Overcast
11:35 PM 23.2 °F 15.0 °F 18.7 °F 83% 29.99 in 10.0 mi West 6.9 mph - N/A   Overcast
11:56 PM 23.4 °F 15.2 °F 19.0 °F 84% 29.99 in 10.0 mi West 6.9 mph - N/A   Overcast